TimePST,TemperatureF,Dew PointF,Humidity,Sea Level PressureIn,VisibilityMPH,Wind Direction,Wind SpeedMPH,Gust SpeedMPH,PrecipitationIn,Events,Conditions,WindDirDegrees,DateUTC
12:03 AM,17.6,14.0,86,29.84,3.0,Calm,Calm,-,N/A,,Overcast,0,2013-02-20 08:03:00
12:56 AM,18.0,15.1,88,29.95,9.0,Calm,Calm,-,N/A,,Overcast,0,2013-02-20 08:56:00
1:06 AM,17.6,15.8,93,29.85,9.0,Calm,Calm,-,N/A,,Overcast,0,2013-02-20 09:06:00
1:56 AM,19.9,17.1,89,29.94,10.0,Calm,Calm,-,N/A,,Overcast,0,2013-02-20 09:56:00
2:56 AM,21.0,18.0,88,29.95,8.0,Calm,Calm,-,N/A,,Overcast,0,2013-02-20 10:56:00
3:19 AM,21.2,17.6,86,29.86,4.0,Calm,Calm,-,0.00,Snow,Light Snow,0,2013-02-20 11:19:00
3:27 AM,21.2,19.4,93,29.86,6.0,Calm,Calm,-,0.00,Snow,Light Snow,0,2013-02-20 11:27:00
3:56 AM,21.0,19.0,92,29.95,8.0,Calm,Calm,-,0.01,,Overcast,0,2013-02-20 11:56:00
4:18 AM,21.2,19.4,93,29.86,9.0,Calm,Calm,-,N/A,,Overcast,0,2013-02-20 12:18:00
4:32 AM,21.2,19.4,93,29.86,6.0,Calm,Calm,-,0.00,Snow,Light Snow,0,2013-02-20 12:32:00
4:56 AM,21.9,19.9,92,29.96,9.0,Calm,Calm,-,0.00,,Overcast,0,2013-02-20 12:56:00
5:56 AM,24.1,21.0,88,29.98,9.0,Calm,Calm,-,N/A,,Overcast,0,2013-02-20 13:56:00
6:56 AM,25.0,21.9,88,29.99,9.0,Calm,Calm,-,N/A,,Overcast,0,2013-02-20 14:56:00
7:56 AM,27.0,25.0,92,30.00,6.0,Calm,Calm,-,N/A,,Overcast,0,2013-02-20 15:56:00
8:56 AM,28.0,26.1,92,30.02,8.0,Calm,Calm,-,N/A,,Overcast,0,2013-02-20 16:56:00
9:25 AM,30.2,26.6,86,29.91,10.0,Calm,Calm,-,N/A,,Mostly Cloudy,0,2013-02-20 17:25:00
9:56 AM,30.0,25.0,82,30.01,10.0,Calm,Calm,-,N/A,,Overcast,0,2013-02-20 17:56:00
10:12 AM,30.2,24.8,80,29.91,10.0,Calm,Calm,-,N/A,,Mostly Cloudy,0,2013-02-20 18:12:00
10:21 AM,30.2,24.8,80,29.91,10.0,Calm,Calm,-,N/A,,Scattered Clouds,0,2013-02-20 18:21:00
10:56 AM,30.9,24.1,76,30.02,10.0,Calm,Calm,-,N/A,,Clear,0,2013-02-20 18:56:00
11:14 AM,33.8,24.8,70,29.91,10.0,Calm,Calm,-,N/A,,Mostly Cloudy,0,2013-02-20 19:14:00
11:39 AM,33.8,24.8,70,29.91,10.0,Calm,Calm,-,N/A,,Scattered Clouds,0,2013-02-20 19:39:00
11:56 AM,32.0,25.0,75,30.01,10.0,Calm,Calm,-,N/A,,Partly Cloudy,0,2013-02-20 19:56:00
12:56 PM,34.0,26.1,73,29.99,10.0,Calm,Calm,-,N/A,,Overcast,0,2013-02-20 20:56:00
1:56 PM,33.1,26.1,75,29.98,10.0,Calm,Calm,-,N/A,,Mostly Cloudy,0,2013-02-20 21:56:00
2:56 PM,34.0,25.0,70,29.97,10.0,Calm,Calm,-,N/A,,Mostly Cloudy,0,2013-02-20 22:56:00
3:56 PM,33.1,25.0,72,29.98,10.0,Calm,Calm,-,N/A,,Overcast,0,2013-02-20 23:56:00
4:11 PM,33.8,24.8,70,29.89,10.0,Variable,4.6,-,N/A,,Overcast,0,2013-02-21 00:11:00
4:56 PM,32.0,25.0,75,29.98,10.0,Calm,Calm,-,N/A,,Mostly Cloudy,0,2013-02-21 00:56:00
5:04 PM,32.0,24.8,75,29.89,10.0,Calm,Calm,-,N/A,,Scattered Clouds,0,2013-02-21 01:04:00
5:56 PM,28.9,25.0,85,29.99,10.0,Calm,Calm,-,N/A,,Clear,0,2013-02-21 01:56:00
6:43 PM,28.4,26.6,93,29.91,10.0,Calm,Calm,-,N/A,,Overcast,0,2013-02-21 02:43:00
6:56 PM,28.9,26.1,89,30.00,10.0,Calm,Calm,-,N/A,,Overcast,0,2013-02-21 02:56:00
7:56 PM,30.0,25.0,82,30.00,6.0,Calm,Calm,-,0.00,Snow,Light Snow,0,2013-02-21 03:56:00
8:37 PM,28.4,24.8,86,29.92,10.0,Calm,Calm,-,0.00,,Mostly Cloudy,0,2013-02-21 04:37:00
8:56 PM,28.9,25.0,85,30.00,10.0,Calm,Calm,-,0.00,,Mostly Cloudy,0,2013-02-21 04:56:00
9:56 PM,28.9,26.1,89,30.00,10.0,Calm,Calm,-,N/A,,Overcast,0,2013-02-21 05:56:00
10:30 PM,26.6,24.8,93,29.92,10.0,Calm,Calm,-,N/A,,Scattered Clouds,0,2013-02-21 06:30:00
10:56 PM,26.1,24.1,92,30.01,10.0,Calm,Calm,-,N/A,,Mostly Cloudy,0,2013-02-21 06:56:00
11:52 PM,24.8,23.0,93,29.93,10.0,Calm,Calm,-,N/A,,Mostly Cloudy,0,2013-02-21 07:52:00
11:56 PM,25.0,23.0,92,30.01,10.0,Calm,Calm,-,N/A,,Mostly Cloudy,0,2013-02-21 07:56:00